{"data":{"norad_id":65435,"intl_designator":"2025-194B","name":"STARLINK-34978","alt_names":[],"object_type":"PAYLOAD","status":"ACTIVE","operator":null,"country":"US","launch_date":"2025-09-03","launch_site_code":"AFWTR","launch_vehicle":null,"mission":null,"orbit_class":"UNKNOWN","rcs_meters":null,"size_class":null,"mass_kg":null,"dimensions":null,"purposes":["comms"],"wikipedia_slug":null,"has_3d_model":false,"image_url":null,"decayed_at":null,"tle_current":{"epoch":"2026-09-20T14:02:26.738880Z","epoch_age_seconds":107562,"freshness":"FRESH","line1":"1 65435U 25194B   26263.58503170  .00006031  00000+0  18897-3 0  9997","line2":"2 65435  97.2842 113.2706 0001878  87.4807 272.6651 15.33445009 59080","mean_motion":15.33445009,"eccentricity":0.0001878,"inclination_deg":97.2842,"raan_deg":113.2706,"arg_perigee_deg":87.4807,"mean_anomaly_deg":272.6651,"bstar":0.00018897,"rev_number":5908,"period_min":93.906204105686,"perigee_km":464.25790456872,"apogee_km":466.8283908322,"semimajor_km":6843.6801477005,"source":"CELESTRAK","updated_at":"2026-09-21T09:00:35.608526Z"}}}